Voltar ao catálogo

ATLAS 5 CENTAUR DEB

LostHEO
NORAD 46664·DEBRIS·🇺🇸 United States

Lançado Oct 17, 2018 de Cape Canaveral Space Force Station

Loading…

Próximas Passagens (próximas 24 horas)

TLE

ObsoletoSource: Space-Track

Época: Aug 30, 2023, 12:41 UTC

1 46664U 18079CS  23242.52854001 -.00000050  00000-0  00000+0 0  9994
2 46664   9.6268 146.8491 4048127  96.0822 310.0874  1.72092471 18178

Acompanhe ATLAS 5 CENTAUR DEB em tempo real com AllMySat

Download on the App Store